Location: Veyrier
(46.1830°N, 6.2000°E)
Time: 01:15:34
(UTC+02:00)

Daily predictions for brighter satellites

Satellite Brightness Start Highest point End
(mag) Time Altitude Azimuth Time Altitude Azimuth Time Altitude Azimuth
USA 215 3.8 00:07:20 42° SW 00:07:20 42° SW 00:13:23 10° WNW
Cosmos 2263 Rocket 2.3 00:04:42 10° NNW 00:09:38 70° NNW 00:09:38 70° NNW
DMSP B5D2-2 4.5 00:06:08 10° N 00:11:17 59° WNW 00:11:17 59° WNW
Cosmos 2322 Rocket 2.4 00:13:14 66° N 00:13:14 66° N 00:18:05 10° NNE
Lacrosse 5 4.4 00:32:40 10° W 00:33:14 11° W 00:33:14 11° W
H-2A R/B 4.2 00:48:55 16° W 00:48:55 16° W 00:51:37 10° NW
Cosmos 2278 Rocket 3.8 00:46:05 10° N 00:50:49 26° NE 00:51:20 26° ENE
ALOS 2 4.5 01:03:54 29° NNW 01:03:54 29° NNW 01:06:04 10° NNW
SL-16 R/B 3.3 01:06:18 36° WNW 01:06:48 37° NW 01:12:04 10° NNE
Lacrosse 4 Rocket 4.1 01:10:36 16° NE 01:10:36 16° NE 01:11:34 10° NE
Cosmos 1844 4.5 01:08:30 10° NNW 01:13:09 47° NNE 01:13:09 47° NNE
Cosmos 2034 Rocket 4.4 01:15:20 54° WNW 01:15:20 54° WNW 01:20:52 10° N
Cosmos 1844 Rocket 3.4 01:18:39 10° NNW 01:22:41 48° NNW 01:22:41 48° NNW
ATLAS CENTAUR R/B 4.3 01:22:55 61° SSW 01:25:22 79° SE 01:53:12 10° NE
Cosmos 2360 Rocket 2.9 01:27:23 50° NNW 01:27:23 50° NNW 01:31:54 10° NNE
ATLAS 3B R/B 4.1 01:31:32 29° E 01:31:32 29° E 01:36:19 10° NE
CZ-2C R/B 3.7 01:25:52 10° NNE 01:29:38 42° NE 01:29:38 42° NE
Cosmos 1092 Rocket 4.4 01:25:41 10° NNW 01:31:01 59° NW 01:31:01 59° NW
Cosmos 1634 Rocket 4.3 01:35:24 65° NNE 01:35:24 65° NNE 01:40:46 10° N
CZ-2C R/B 4.2 01:44:44 37° N 01:44:44 37° N 01:47:44 10° N
Cosmos 2219 Rocket 3.3 01:50:45 38° NE 01:50:45 38° NE 01:54:19 10° NNE
Cosmos 2279 Rocket 4.3 01:55:45 61° NE 01:55:45 61° NE 02:00:57 10° NNE
Cosmos 2333 Rocket 3.3 01:57:46 38° ENE 01:57:46 38° ENE 02:01:34 10° NE
Cosmos 2322 Rocket 4.4 01:55:01 14° WNW 01:57:24 18° NW 02:01:08 10° N
SL-16 R/B 4.2 01:58:53 19° E 01:58:53 19° E 02:01:31 10° NE
Cosmos 2237 Rocket 3.3 02:05:06 38° ENE 02:05:06 38° ENE 02:08:54 10° NE
COSMOS 2428 3.4 02:13:05 48° NNW 02:13:05 48° NNW 02:17:46 10° NNE
Cosmos 2266 Rocket 4.4 02:08:33 10° N 02:14:41 57° ENE 02:14:41 57° ENE
Cosmos 1452 Rocket 4.3 02:25:41 10° NNW 02:29:48 49° NNE 02:29:48 49° NNE
Cosmos 2278 Rocket 3.3 02:29:44 10° NNW 02:33:08 36° NW 02:33:08 36° NW
CZ-3A R/B 3.4 02:40:01 68° SW 02:41:06 89° NW 02:45:42 10° NE
Lacrosse 4 Rocket 3.7 02:46:56 21° NNW 02:46:56 21° NNW 02:49:45 10° N
Cosmos 1818 4.4 02:44:29 10° NW 02:48:16 45° NNW 02:48:16 45° NNW
COSMOS 2455 3.0 03:01:51 65° NW 03:01:51 65° NW 03:07:40 10° NNE
Cosmos 1607 4.3 03:02:42 51° ESE 03:02:42 51° ESE 03:08:19 10° NE
Cosmos 2221 4.4 03:11:31 24° NNW 03:11:31 24° NNW 03:13:45 10° N
CZ-2C R/B 4.3 03:06:56 10° N 03:11:09 24° WNW 03:11:09 24° WNW
ATLAS CENTAUR R/B 3.9 03:07:45 10° NNW 03:11:15 21° NE 03:14:32 10° E
NOSS 0 Rocket 4.3 03:12:23 50° WNW 03:12:38 50° NW 03:18:38 10° NNE
CZ-4C R/B 2.8 03:13:14 45° ESE 03:13:14 45° ESE 03:18:29 10° NE
Aureole 2 Rocket 4.4 03:16:38 34° NNE 03:16:38 34° NNE 03:19:10 10° NNE
CZ-2D R/B 4.1 03:15:50 10° NE 03:19:38 20° E 03:21:33 16° ESE
ATLAS 3B R/B 3.0 03:18:47 58° WSW 03:20:15 70° NW 03:27:39 10° NE
IRS-P3 4.2 03:15:08 10° NNE 03:20:14 74° ENE 03:20:14 74° ENE
Cosmos 2369 Rocket 4.0 03:15:42 10° N 03:20:34 29° NE 03:25:25 10° ESE
Timation 1 Rocket 4.3 03:15:01 10° NNW 03:20:26 71° WNW 03:20:26 71° WNW
Cosmos 1420 Rocket 4.3 03:21:30 10° NNW 03:25:47 60° NNW 03:25:47 60° NNW
SL-08 R/B 3.8 03:28:53 52° NNW 03:28:53 52° NNW 03:32:27 10° NNW
Meteor 2-2 Rocket 4.3 03:31:45 69° SSE 03:32:23 76° E 03:38:19 10° NNE
NPP 3.5 03:27:36 10° NNE 03:33:02 83° ESE 03:33:06 83° ESE
Cosmos 2219 Rocket 3.5 03:32:28 26° WNW 03:33:09 27° NW 03:37:53 10° N
SL-16 R/B 3.2 03:34:00 19° SE 03:38:14 52° ENE 03:44:14 10° N
Cosmos 2333 Rocket 3.4 03:39:46 30° WNW 03:40:32 31° NW 03:45:38 10° NNE
SL-16 R/B 2.2 03:40:46 66° WNW 03:41:00 66° WNW 03:46:42 10° NNE
S3M 4.1 03:43:01 51° SSE 03:44:34 71° E 03:50:51 10° NNE
Cosmos 1151 Rocket 3.4 03:45:32 64° NNE 03:45:32 64° NNE 03:49:17 10° N
Cosmos 2237 Rocket 3.3 03:46:56 30° WNW 03:47:43 31° NW 03:52:44 10° N
Cosmos 1300 3.8 03:48:12 40° ENE 03:48:12 40° ENE 03:51:26 10° NNE
Cosmos 1048 Rocket 3.9 03:50:22 77° S 03:50:45 86° ESE 03:56:11 10° NNE
Cosmos 1726 3.4 03:51:13 36° E 03:51:13 36° E 03:54:25 10° NNE
AQUA 3.8 03:46:57 10° N 03:51:34 77° NW 03:51:34 77° NW
Cosmos 1943 Rocket 4.4 03:47:36 10° N 03:52:12 25° NE 03:56:46 10° ESE
Spot 4 Rocket 4.2 03:47:46 10° NNE 03:52:56 64° ESE 03:53:45 55° SSE
ADEOS 3.6 03:47:44 10° NNE 03:52:58 71° ESE 03:53:44 60° SSE
IRS-1D 4.4 03:48:40 10° NNE 03:53:38 45° E 03:55:13 35° SE
Cosmos 1867 3.5 03:56:54 68° WSW 03:57:28 76° NW 04:02:59 10° NE
IRAS Rocket 4.2 03:53:34 10° NNE 03:59:14 80° ESE 04:00:27 56° S
Resurs 1-4 Rocket 2.9 03:57:08 10° NNE 04:02:12 46° E 04:04:14 31° SSE
Cosmos 1340 Rocket 3.2 03:58:56 10° N 04:02:18 60° N 04:02:18 60° N
Cosmos 1271 Rocket 3.0 04:04:28 67° ENE 04:04:28 67° ENE 04:08:19 10° NNE
SL-24 R/B 4.0 04:04:58 82° W 04:04:58 82° W 04:09:42 10° NNW
Cosmos 1553 Rocket 3.8 04:04:00 53° SSW 04:05:36 83° W 04:11:46 10° N
USA 234 3.3 03:59:21 10° NE 04:05:54 68° SE 04:07:55 46° SSW
Cosmos 1269 Rocket 4.1 04:06:02 57° W 04:06:32 60° WNW 04:11:48 10° NNE
Cosmos 1745 Rocket 3.9 04:00:09 10° N 04:06:33 81° W 04:08:53 42° S
ARIANE 5 R/B 2.8 04:02:48 10° NNE 04:08:02 64° ESE 04:09:36 43° SSE
USA 238 DEB 3.8 04:05:47 45° WSW 04:08:04 69° NW 04:15:08 10° NE
USA 238 3.8 04:05:54 45° WSW 04:08:10 70° NW 04:15:15 10° NE
Cosmos 1331 Rocket 4.2 04:07:07 10° NNW 04:12:23 70° ENE 04:17:18 12° SSE
Abrixas rocket 3.1 04:18:45 50° NE 04:18:45 50° NE 04:21:22 10° ENE
Cosmos 839 Rocket 4.4 04:11:03 10° NW 04:19:41 85° WSW 04:26:29 10° SSE
BREEZE-M DEB (TANK) 4.3 04:11:50 10° WNW 04:18:39 39° W 04:18:39 39° W
UNK 3.6 04:21:55 50° S 04:23:06 83° WSW 04:27:44 10° NNW
Cosmos 1603 3.6 04:21:46 49° SW 04:23:20 77° WNW 04:29:06 10° NNE
Cosmos 1869 Rocket 3.4 04:20:29 10° NNW 04:24:53 68° W 04:25:13 65° SW
NOSS 3-2 (A) 3.5 04:22:41 42° SSW 04:24:58 78° SE 04:31:42 10° NE
ATLAS 5 CENTAUR R/B 3.8 04:23:12 14° SSE 04:25:47 21° ESE 04:29:36 10° ENE
Meteor 2-3 Rocket 3.7 04:21:36 10° NNW 04:27:24 87° W 04:31:06 23° S
Meteor 1-4 Rocket 3.4 04:29:43 37° NW 04:29:43 37° NW 04:32:20 10° N
In-Cosmos 22 Rocket 4.0 04:24:18 10° NNW 04:29:36 71° W 04:31:38 38° S
NOSS 3-3 (A) 4.4 04:24:19 10° NW 04:31:41 70° WSW 04:39:31 10° SSE
NOSS 3-3 (C) 4.4 04:24:26 10° NW 04:31:48 70° WSW 04:39:39 10° SSE
ERS-2 2.3 04:30:10 10° N 04:33:48 58° WNW 04:33:48 58° WNW
UNKNOWN OBJECT B 3.1 04:32:22 10° NNE 04:36:03 57° E 04:37:06 40° SSE
SeaSat 1 2.5 04:31:44 10° SE 04:36:40 79° ENE 04:41:37 10° NNW
EO 1 Del DPAF 3.2 04:36:37 44° SSE 04:37:48 89° WSW 04:41:44 10° NNW
NOSS 3-2 (C) 3.5 04:37:29 34° SSW 04:40:22 80° SE 04:47:08 10° NE
Cosmos 2251 Rocket 3.4 04:39:40 37° SSW 04:41:51 89° ESE 04:47:08 10° NNE
Cosmos 158 Rocket 4.1 04:42:07 41° WSW 04:43:39 58° WNW 04:48:36 10° NNE
Cosmos 1356 Rocket 3.5 04:40:51 10° NNW 04:44:47 49° W 04:44:53 48° W
Cosmos 1110 Rocket 4.0 04:41:35 10° NNW 04:46:40 54° WSW 04:49:30 25° S
CENTAUR R/B 4.2 04:43:25 10° SSE 04:48:27 27° ESE 04:53:57 10° NE
ATLAS CENTAUR R/B 1.2 04:46:27 10° NW 04:50:50 67° WSW 04:54:48 10° SSE
Cosmos 1184 Rocket 4.0 04:49:12 10° N 04:52:32 44° ENE 04:55:48 10° SSE
Iridium 2 3.5 04:49:16 10° N 04:53:06 80° W 04:54:40 34° S
Cosmos 883 Rocket 4.4 04:51:04 27° SSW 04:54:34 69° W 05:00:43 10° N
Cosmos 1943 3.2 04:52:27 28° SSW 04:55:36 87° ESE 05:01:18 10° NNE
Meteor 2-10 4.1 04:52:15 21° S 04:56:04 88° E 05:01:32 10° NNE
ERBS 3.2 04:56:09 33° WNW 04:57:02 40° NNW 05:00:24 10° NE
CZ-2D R/B 2.2 04:54:56 10° N 05:00:09 60° WNW 05:02:53 27° SW
Cosmos 2315 Rocket 3.9 04:56:20 18° S 05:01:10 84° W 05:07:30 10° N
CZ-4C R/B 3.1 04:58:25 23° W 05:01:25 40° NW 05:07:18 10° NNE
Cosmos 1892 2.6 04:57:37 10° NNW 05:01:27 63° W 05:03:13 29° SSW
Coronas F rocket 3.7 05:02:25 10° NW 05:03:01 14° NW 05:03:01 14° NW
Cosmos 2369 Rocket 2.3 04:59:26 10° NW 05:04:52 52° WSW 05:10:16 10° S
Cosmos 1733 Rocket 3.0 05:01:05 10° N 05:05:29 90° W 05:09:53 10° S
CZ-4B R/B 3.9 05:01:12 10° NNE 05:06:24 51° E 05:11:31 10° S
Cosmos 1707 Rocket 4.4 05:08:03 28° WSW 05:09:23 34° WNW 05:13:30 10° N
ATLAS 3B R/B 4.3 05:06:05 10° W 05:12:18 27° NNW 05:18:19 10° NNE
PSLV R/B 3.6 05:17:07 10° NNE 05:20:52 89° WNW 05:23:54 15° SSW
SL-16 R/B 3.3 05:19:06 20° SW 05:22:09 29° W 05:27:27 10° NW
SL-27 R/B 4.1 05:19:14 10° SSE 05:22:33 33° ESE 05:25:52 10° NE
Okean O Rocket 1.6 05:19:11 10° NNE 05:23:41 88° WNW 05:27:56 11° SSW
ARGOS Delta rocket 3.6 05:19:55 10° N 05:24:21 69° WNW 05:28:03 14° SSW
Okean-O 4.3 05:20:28 10° NNE 05:24:29 32° E 05:28:28 10° SSE
SL-16 R/B 4.2 05:23:04 10° WNW 05:26:18 15° NW 05:29:32 10° N
Cosmos 1726 3.9 05:25:54 16° W 05:26:28 17° WNW 05:28:57 10° NNW
Cosmos 2292 Rocket 3.7 05:24:19 10° NNW 05:26:52 26° W 05:27:12 26° WSW
PAYLOAD B 4.3 05:23:29 10° NNE 05:29:05 83° ESE 05:34:36 10° SSW
SL-08 ROCKET BODY 4.5 05:24:26 10° N 05:30:28 84° E 05:36:33 10° S
Cosmos 1908 Rocket 3.7 05:27:32 10° N 05:31:58 79° E 05:36:20 10° SSE
Cosmos 494 Rocket 4.4 05:29:05 19° SW 05:32:40 47° WNW 05:37:45 10° NNE
Cosmos 1943 Rocket 2.1 05:30:49 10° NNW 05:36:28 67° WSW 05:42:03 10° SSE
Cosmos 1455 2.7 05:34:15 18° SW 05:36:51 42° WNW 05:40:35 10° N
Cosmos 1302 Rocket 4.5 05:32:37 10° NW 05:37:27 38° WSW 05:42:14 10° S
Sich 1 Rocket 3.5 05:34:28 10° NNW 05:38:51 72° W 05:43:12 10° S
Resurs 1-4 Rocket 3.2 05:37:26 10° N 05:41:49 27° WNW 05:45:19 14° WSW
CZ-2C R/B 4.0 05:37:56 10° S 05:42:10 43° W 05:46:25 10° NNW
ARIANE 5 R/B 4.1 05:42:54 10° NNW 05:46:41 21° WNW 05:49:57 12° WSW
CZ-2D R/B 4.5 05:44:39 10° N 05:48:35 32° WNW 05:51:59 12° SW
USA 234 3.8 05:42:29 10° NE 05:48:47 51° NNW 05:55:03 10° W
MOZ.5/SAFIR/RUBIN 5/SL-8 4.4 05:47:21 10° SSW 05:51:34 35° W 05:55:50 10° NNW
Cosmos 1703 Rocket 3.8 05:47:30 10° S 05:51:58 77° E 05:56:28 10° NNE
Centaur D-1A AC-31 3.9 05:48:24 12° WSW 05:54:03 17° SSW 05:57:31 10° SSE
Abrixas rocket 2.7 05:51:58 10° WNW 05:55:17 59° N 05:58:37 10° E
Nadezhda 1 Rocket 4.1 05:49:19 10° S 05:55:34 90° E 06:01:58 10° N
USA 129 0.5 05:56:31 36° SW 05:56:41 41° W 05:57:54 10° NNW
CZ-4B R/B 3.0 05:57:02 10° N 06:00:31 46° WNW 06:04:04 10° SW
ADEOS II 2.5 05:55:21 10° NNE 06:00:37 69° ESE 06:05:51 10° S
Cosmos 389 Rocket 3.0 05:57:44 10° SW 06:01:01 39° WNW 06:04:21 10° N
Cosmos 1862 3.5 05:57:15 10° NNW 06:01:07 50° W 06:04:56 10° S
Geosat 4.0 06:00:53 10° NNE 06:05:56 89° NW 06:10:58 10° SSW
ATLAS 5 CENTAUR R/B 2.1 06:05:03 10° SW 06:09:55 62° NW 06:15:15 10° NE
Cosmos 1656 Rocket 3.6 06:07:05 10° NNW 06:12:30 70° WSW 06:17:51 10° SSE
PSLV R/B 3.6 06:09:47 10° N 06:14:08 71° WNW 06:18:30 10° SSW
Cosmos 1825 2.8 06:10:47 10° NNW 06:14:18 36° W 06:17:47 10° SSW
SeaSat 1 3.9 06:11:43 10° SW 06:14:41 16° WSW 06:17:41 10° WNW
Cosmos 2154 Rocket 4.1 06:08:28 10° N 06:14:48 82° W 06:21:09 10° S
Cosmos 2074 Rocket 4.4 06:09:09 10° NNW 06:14:56 42° W 06:20:43 10° SSW
Thor Agena Rocket 4.1 06:10:52 10° SSW 06:15:37 38° W 06:20:27 10° NNW
PSLV R/B 4.2 06:12:49 10° WSW 06:15:58 34° S 06:19:04 10° ESE
Cosmos 1933 3.8 06:12:19 10° SSW 06:16:15 44° WNW 06:20:13 10° N
Cosmos 2184 Rocket 4.4 06:10:27 10° NNW 06:16:25 43° W 06:22:21 10° SSW
Okean 2 Rocket 3.1 06:15:37 10° NNW 06:20:05 67° W 06:24:34 10° S
USA 116 4.4 06:16:16 10° S 06:20:52 56° W 06:25:59 10° NNW
